Flag for United Kingdom Weather past 2 weeks in Sunderland, England, United Kingdom

Now
55 °F

Light rain. Partly sunny.


Feels Like: 55 °F
Forecast: 51 / 60 °F
Wind: 3 mph from Southwest

Location: Newcastle

Current Time: Sep 23, 2014 at 6:04:27 PM

Latest Report: Sep 23, 2014 at 5:20 PM


Visibility: 5 mi

Pressure: 29.92 "Hg

Humidity: 94%

Dew point: 54 °F

Location of SunderlandLocation

Historic Weather in Sunderland — Graph

°F

Sunderland temperature yesterday

Maximum temperature yesterday: 63 °F (at 1:20 PM)
Minimum temperature yesterday: 41 °F (at 12:20 AM)
Average temperature yesterday: 53 °F

Past Weeks' High & Low Weather Summary

 TemperatureHumidityPressure
High68 °F (Sep 12, 3:20 PM)100% (Sep 9, 2:20 AM)30.42 "Hg (Sep 9, 2:20 AM)
Low41 °F (Sep 21, 9:50 PM)53% (Sep 12, 3:20 PM)29.92 "Hg (Sep 18, 2:50 AM)
Average55 °F89%30.15 "Hg
* Reported Sep 8 4:20 PM — Sep 23 4:50 PM, Sunderland, Weather by CustomWeather, © 2014

Note: Actual official high and low records may vary slightly from our data, if they occured in-between our weather recording intervals... More about our weather records

Advertising

Sunderland weather history for previous 24 hours

 ConditionsComfort  
Time TempWeatherWind HumidityBarometerVisibility
4:50 PM
Sep 23
55 °FLight rain. Broken clouds.3 mph94%29.95 "HgN/A
4:20 PM55 °FSprinkles. Broken clouds.6 mph100%29.95 "Hg3 mi
3:50 PM57 °FScattered showers. Partly sunny.6 mph94%29.95 "Hg6 mi
3:20 PM57 °FDrizzle. Partly sunny.7 mph94%29.98 "Hg4 mi
2:20 PM57 °FDrizzle. Partly sunny.5 mph94%29.98 "HgN/A
1:50 PM57 °FMixture of precip. Partly sunny.5 mph94%29.98 "HgN/A
1:20 PM57 °FScattered showers. Broken clouds.7 mph94%30.01 "Hg4 mi
12:50 PM57 °FDrizzle. Partly sunny.2 mph88%30.01 "HgN/A
12:20 PM57 °FPartly sunny.No wind82%30.01 "HgN/A
11:50 AM57 °FPartly sunny.3 mph82%30.01 "HgN/A
11:20 AM57 °FPartly sunny.No wind82%30.04 "HgN/A
10:50 AM57 °FPartly sunny.2 mph82%30.04 "HgN/A
10:20 AM57 °FPassing clouds.5 mph82%30.04 "HgN/A
9:50 AM64 °FPassing clouds.No wind64%30.04 "HgN/A
9:20 AM55 °FPassing clouds.7 mph82%30.04 "HgN/A
8:50 AM54 °FPassing clouds.5 mph88%30.04 "HgN/A
7:50 AM52 °FPassing clouds.6 mph94%30.04 "HgN/A
7:20 AM50 °FPassing clouds.5 mph88%30.04 "HgN/A
6:50 AM50 °FPassing clouds.3 mph88%30.04 "HgN/A
6:20 AM50 °FPassing clouds.3 mph88%30.07 "HgN/A
5:50 AM50 °FPassing clouds.5 mph94%30.07 "HgN/A
5:20 AM48 °FPassing clouds.6 mph94%30.07 "HgN/A
4:50 AM46 °FPassing clouds.2 mph93%30.07 "HgN/A
3:50 AM46 °FClear.2 mph100%30.09 "Hg10 mi
3:20 AM48 °FClear.3 mph94%30.09 "Hg10 mi
2:50 AM48 °FClear.3 mph94%30.09 "Hg10 mi
2:20 AM48 °FClear.3 mph94%30.12 "Hg10 mi
1:50 AM50 °FClear.3 mph94%30.12 "Hg10 mi
1:20 AM50 °FClear.3 mph94%30.12 "Hg10 mi
12:50 AM50 °FClear.5 mph88%30.12 "Hg10 mi
12:20 AM52 °FClear.6 mph88%30.15 "Hg10 mi
11:50 PM
Sep 22
52 °FClear.7 mph88%30.15 "Hg10 mi
11:20 PM52 °FClear.7 mph88%30.15 "Hg10 mi
10:50 PM52 °FClear.7 mph88%30.15 "Hg10 mi
10:20 PM52 °FClear.7 mph88%30.15 "Hg10 mi
9:50 PM54 °FPassing clouds.7 mph82%30.15 "HgN/A
9:20 PM54 °FPassing clouds.7 mph82%30.15 "HgN/A
8:50 PM54 °FPassing clouds.5 mph82%30.18 "HgN/A
8:20 PM55 °FPassing clouds.5 mph77%30.18 "HgN/A
7:50 PM55 °FPassing clouds.8 mph77%30.18 "HgN/A
7:20 PM57 °FPassing clouds.8 mph72%30.18 "HgN/A
6:50 PM57 °FPassing clouds.9 mph72%30.18 "HgN/A
6:20 PM59 °FPassing clouds.10 mph68%30.18 "HgN/A
Weather by CustomWeather, © 2014

See weather overviewHow to use our weather pages